This is the latest recevied weather packets stored in our database for station/object IU3NMQ-10. If no packets are shown the sender has not sent any weather packets the latest 10 day(s).
| Time | Temp. | Humidity | Pressure | Rain* | Wind** | Luminosity | Snow |
|---|---|---|---|---|---|---|---|
| 1787954558 | 25° C | 90% | 1009.4 hPa | - | - | - | - |
| 1787953658 | 25° C | 90% | 1009.2 hPa | - | - | - | - |
| 1787952758 | 25° C | 89% | 1009.2 hPa | - | - | - | - |
| 1787951858 | 25° C | 91% | 1009.7 hPa | - | - | - | - |
| 1787950957 | 25° C | 90% | 1009.7 hPa | - | - | - | - |
| 1787950057 | 25° C | 90% | 1010 hPa | - | - | - | - |
| 1787949157 | 25° C | 90% | 1010.3 hPa | - | - | - | - |
| 1787948255 | 25.56° C | 90% | 1010.5 hPa | - | - | - | - |
| 1787947355 | 25.56° C | 90% | 1010.4 hPa | - | - | - | - |
| 1787946455 | 25.56° C | 89% | 1010.6 hPa | - | - | - | - |
| 1787945555 | 25.56° C | 89% | 1011.3 hPa | - | - | - | - |
| 1787944902 | 25.56° C | 92% | 1010.4 hPa | - | - | - | - |
| 1787944686 | 25.56° C | 92% | 1010.4 hPa | - | - | - | - |
| 1787944655 | 25.56° C | 92% | 1010.4 hPa | - | - | - | - |
| 1787943755 | 25.56° C | 93% | 1012.4 hPa | - | - | - | - |
| 1787943059 | 26.67° C | 87% | 1009.9 hPa | - | - | - | - |
| 1787942855 | 26.67° C | 87% | 1009.9 hPa | - | - | - | - |
| 1787941955 | 26.67° C | 86% | 1009.9 hPa | - | - | - | - |
| 1787941054 | 27.22° C | 84% | 1010 hPa | - | - | - | - |
| 1787940154 | 28.33° C | 80% | 1012.1 hPa | - | - | - | - |
| 1787939254 | 29.44° C | 74% | 1009.9 hPa | - | - | - | - |
| 1787938354 | 30° C | 72% | 1009.1 hPa | - | - | - | - |
| 1787937537 | 30° C | 70% | 1009 hPa | - | - | - | - |
| 1787937454 | 30° C | 70% | 1009 hPa | - | - | - | - |
| 1787936603 | 30° C | 70% | 1009.3 hPa | - | - | - | - |
* Rain since midnight (hover to see other rain measurements)
** Current wind speed in m/s (hover to see current wind gust speed)